Weather History for Romorantin, France

Change the Weather History Date:

Tuesday, December 17, 2013

  Actual Average (LFOT) Record (LFOT)
Temperature  
Mean Temperature 38 °F -  
Max Temperature 55 °F 43 °F 53 °F (2004)
Min Temperature 22 °F 33 °F 26 °F (2001)
Degree Days  
Heating Degree Days 26    
Moisture  
Dew Point 34 °F    
Average Humidity 81    
Maximum Humidity 100    
Minimum Humidity 46    
Precipitation  
Precipitation 0.00 in - - ()
Sea Level Pressure  
Sea Level Pressure 30.24 in    
Wind  
Wind Speed 2 mph ()    
Max Wind Speed 10 mph    
Max Gust Speed -    
Visibility 6.4 miles    
Events Fog    
Averages and records for this station are not official NWS values.
T = Trace of Precipitation, MM = Missing Value Source: Averaged Metar Reports

Daily Weather History Graph

Daily Weather History Graph

Search for Another Location

Airport:

Trip Planner

Search our weather history database for the weather conditions in past years. The results will help you decide how hot, cold, wet, or windy it might be!

Date:

Astronomy

Dec. 17, 2013 Rise Set
Actual Time 8:35 AM CET 5:03 PM CET
Civil Twilight 7:59 AM CET 5:39 PM CET
Nautical Twilight 7:20 AM CET 6:18 PM CET
Astronomical Twilight 6:42 AM CET 6:55 PM CET
Moon 5:34 PM CET (12/17) 8:15 AM CET (12/17)
Length of Visible Light 9h 40m
Length of Day
8h 28m
Full, 100% of the Moon is Illuminated
Dec 17
Full
Dec 25
Last Quarter
Jan 1
New
Jan 8
First Quarter
Jan 16
Full

Hourly Weather History & Observations

Time (CET) Temp. Windchill Dew Point Humidity Pressure Visibility Wind Dir Wind Speed Gust Speed Precip Events Conditions
12:00 AM 26.6 °F - 26.6 °F 100% 30.27 in 0.7 mi Calm Calm - N/A Fog Patches of Fog
12:30 AM 28.4 °F - 28.4 °F 100% 30.27 in 6.2 mi Calm Calm - N/A   Unknown
1:00 AM 27 °F - 26 °F 95% 30.29 in 3 mi Calm Calm - -   Clear
1:00 AM 26.6 °F - 26.6 °F 100% 30.24 in 3.1 mi Calm Calm - N/A   Mist
1:30 AM 26.6 °F - 26.6 °F 100% 30.24 in 5.6 mi East 2.3 mph - N/A   Unknown
2:00 AM 27 °F - 27 °F 99% 30.27 in 6 mi Calm Calm - -   Clear
2:00 AM 26.6 °F - 26.6 °F 100% 30.24 in 5.6 mi Calm Calm - N/A   Unknown
2:30 AM 26.6 °F - 26.6 °F 100% 30.24 in 4.3 mi Calm Calm - N/A   Unknown
3:00 AM 26 °F - 26 °F 97% 30.28 in 3 mi Calm Calm - -   Mist
3:00 AM 26.6 °F - 24.8 °F 93% 30.24 in 5.6 mi Calm Calm - N/A   Unknown
3:30 AM 24.8 °F - 24.8 °F 100% 30.24 in 1.4 mi Calm Calm - N/A Fog Patches of Fog
4:00 AM 25 °F - 24 °F 93% 30.29 in 2 mi Calm Calm - -   Mist
4:00 AM 24.8 °F - 23.0 °F 93% 30.24 in 0.9 mi Calm Calm - N/A   Mist
4:30 AM 26.6 °F - 24.8 °F 93% 30.24 in 6.2 mi Calm Calm - N/A   Unknown
5:00 AM 24 °F - 24 °F 98% 30.29 in 0 mi ENE 1.2 mph - - Fog Fog
5:00 AM 24.8 °F - 23.0 °F 93% 30.24 in 2.2 mi Variable 1.2 mph - N/A Fog Patches of Fog
5:30 AM 23.0 °F - 23.0 °F 100% 30.24 in 4.3 mi Calm Calm - N/A   Unknown
6:00 AM 23 °F - 22 °F 92% 30.29 in 4 mi East 1.2 mph - -   Clear
6:00 AM 23.0 °F - 21.2 °F 93% 30.24 in 3.7 mi Variable 1.2 mph - N/A   Unknown
6:30 AM 26.6 °F - 24.8 °F 93% 30.24 in 5.6 mi Calm Calm - N/A   Unknown
7:00 AM 24 °F - 23 °F 92% 30.29 in 4 mi Calm Calm - -   Clear
7:00 AM 24.8 °F - 23.0 °F 93% 30.24 in 4.3 mi Calm Calm - N/A   Unknown
7:30 AM 24.8 °F - 23.0 °F 93% 30.24 in 3.1 mi Variable 1.2 mph - N/A   Mist
8:00 AM 24 °F - 23 °F 94% 30.30 in 6 mi East 2.3 mph - -   Clear
8:00 AM 24.8 °F - 23.0 °F 93% 30.27 in 5.6 mi East 2.3 mph - N/A   Unknown
8:30 AM 26.6 °F - 24.8 °F 93% 30.27 in 6.2 mi Calm Calm - N/A   Unknown
9:00 AM 26.6 °F 22.6 °F 26.6 °F 100% 30.27 in 6.2 mi ESE 3.5 mph - N/A   Unknown
9:30 AM 33.8 °F 30.8 °F 32.0 °F 93% 30.27 in 6.2 mi ESE 3.5 mph - N/A   Unknown
10:00 AM 35 °F - 31 °F 78% 30.30 in 9 mi East 3.5 mph - -   Clear
10:00 AM 33.8 °F 30.8 °F 30.2 °F 87% 30.27 in 6.2 mi East 3.5 mph - N/A   Unknown
10:30 AM 37.4 °F - 32.0 °F 81% 30.27 in 6.2 mi Variable 2.3 mph - N/A   Unknown
11:00 AM 43 °F - 33 °F 58% 30.30 in 12 mi ESE 3.5 mph - -   Clear
11:00 AM 42.8 °F 41.1 °F 33.8 °F 70% 30.27 in 6.2 mi ESE 3.5 mph - N/A   Unknown
11:30 AM 46.4 °F - 35.6 °F 66% 30.27 in 6.2 mi Calm Calm - N/A   Unknown
12:00 PM 50.0 °F - 35.6 °F 58% 30.27 in 6.2 mi Calm Calm - N/A   Unknown
12:30 PM 51.8 °F - 37.4 °F 58% 30.24 in 6.2 mi Variable 2.3 mph - N/A   Unknown
1:00 PM 53 °F - 38 °F 46% 30.26 in 12 mi SSW 4.6 mph - -   Clear
1:00 PM 53.6 °F - 39.2 °F 58% 30.24 in 6.2 mi SSW 4.6 mph - N/A   Unknown
1:30 PM 55.4 °F - 41.0 °F 58% 30.24 in 6.2 mi SSW 6.9 mph - N/A   Unknown
2:00 PM 55 °F - 41 °F 49% 30.25 in 12 mi SSW 10.4 mph - -   Clear
2:00 PM 55.4 °F - 41.0 °F 58% 30.24 in 6.2 mi SSW 10.4 mph - N/A   Unknown
2:30 PM 53.6 °F - 42.8 °F 67% 30.21 in 6.2 mi SSW 9.2 mph - N/A   Unknown
3:00 PM 54 °F - 42 °F 53% 30.23 in 12 mi South 9.2 mph - -   Clear
3:00 PM 53.6 °F - 42.8 °F 67% 30.21 in 6.2 mi South 9.2 mph - N/A   Unknown
3:30 PM 53.6 °F - 42.8 °F 67% 30.21 in 6.2 mi South 8.1 mph - N/A   Unknown
4:00 PM 52 °F - 42 °F 59% 30.23 in 12 mi South 6.9 mph - -   Clear
4:00 PM 51.8 °F - 42.8 °F 71% 30.21 in 6.2 mi South 6.9 mph - N/A   Unknown
4:30 PM 50.0 °F - 41.0 °F 71% 30.21 in 6.2 mi SSE 4.6 mph - N/A   Unknown
5:00 PM 47 °F - 41 °F 72% 30.24 in 12 mi SSE 4.6 mph - -   Clear
5:00 PM 48.2 °F - 41.0 °F 76% 30.21 in 6.2 mi SSE 4.6 mph - N/A   Unknown
5:30 PM 46.4 °F 44.3 °F 41.0 °F 81% 30.21 in 6.2 mi SSE 4.6 mph - N/A   Unknown
6:00 PM 45 °F - 40 °F 76% 30.25 in 12 mi South 4.6 mph - -   Clear
6:00 PM 44.6 °F 42.2 °F 39.2 °F 81% 30.21 in 6.2 mi South 4.6 mph - N/A   Unknown
6:30 PM 46.4 °F - 39.2 °F 76% 30.21 in 6.2 mi Variable 2.3 mph - N/A   Unknown
7:00 PM 45 °F - 40 °F 75% 30.24 in 12 mi South 4.6 mph - -   Clear
7:00 PM 44.6 °F 42.2 °F 39.2 °F 81% 30.21 in 6.2 mi South 4.6 mph - N/A   Unknown
7:30 PM 44.6 °F 42.2 °F 39.2 °F 81% 30.21 in 6.2 mi South 4.6 mph - N/A   Unknown
8:00 PM 47 °F - 41 °F 72% 30.24 in 12 mi South 6.9 mph - -   Clear
8:00 PM 46.4 °F 42.9 °F 41.0 °F 81% 30.21 in 6.2 mi South 6.9 mph - N/A   Unknown
8:30 PM 48.2 °F - 41.0 °F 76% 30.21 in 6.2 mi SSW 5.8 mph - N/A   Unknown
9:00 PM 49 °F - 41 °F 67% 30.23 in 12 mi South 6.9 mph - -   Clear
9:00 PM 48.2 °F - 41.0 °F 76% 30.21 in 6.2 mi South 6.9 mph - N/A   Unknown
9:30 PM 48.2 °F - 41.0 °F 76% 30.21 in 6.2 mi South 8.1 mph - N/A   Unknown
10:00 PM 49 °F - 41 °F 67% 30.23 in 12 mi SSW 9.2 mph - -   Clear
10:00 PM 50.0 °F - 41.0 °F 71% 30.21 in 6.2 mi SSW 9.2 mph - N/A   Unknown
10:30 PM 48.2 °F - 41.0 °F 76% 30.21 in 6.2 mi SSW 4.6 mph - N/A   Unknown
11:00 PM 46 °F - 40 °F 73% 30.24 in 12 mi South 4.6 mph - -   Clear
11:00 PM 46.4 °F 44.3 °F 41.0 °F 81% 30.21 in 6.2 mi South 4.6 mph - N/A   Mostly Cloudy
11:30 PM 44.6 °F 41.4 °F 39.2 °F 81% 30.21 in 6.2 mi South 5.8 mph - N/A   Mostly Cloudy